Regional Weather Roundup
Issued by NWS

Home | Current Version | Previous Version | Graphics & Text | Print | Product List | Glossary On
Versions: 1 2 3 4 5 6 7 8 9 10 11 12 13 14 15 16 17 18 19 20 21 22 23 24 25 26 27
000
ASUS45 KSLC 170610
RWRUT

UTAH REGIONAL WEATHER ROUNDUP
NATIONAL WEATHER SERVICE SALT LAKE CITY UT
1100 PM MST SAT DEC 16 2017

UTZ001>011-023>025-170700-

NORTHERN UTAH

CITY           SKY/WX    TMP DP  RH WIND       PRES   REMARKS
BRIGHAM CITY   CLOUDY    30  24  79 S5        30.08R WCI  25
HILL AFB       CLOUDY    27  25  93 CALM      30.05R
LOGAN          CLOUDY    30  23  75 SW5       30.08R WCI  25
OGDEN          CLOUDY    28  24  85 W3        30.06R
SALT LAKE CITY FLURRIES  31  29  92 NW6       30.08R WCI  25
TOOELE VALLEY  FLURRIES  30  30 100 CALM      30.08S
WENDOVER       CLOUDY    32  18  56 NW17G26   30.10R WCI  21
HEBER CITY     FLURRIES  30  25  80 CALM      29.98S
WEST JORDAN    CLOUDY    28  28 100 NW10      30.07R WCI  19

$$

UTZ011>015-024>027-170700-

CENTRAL/NORTHEAST UTAH

CITY           SKY/WX    TMP DP  RH WIND       PRES   REMARKS
PROVO AIRPORT  CLOUDY    30  27  88 NW17      30.06R WCI  18
MOAB/CANYONLAN MOCLDY    23   7  50 CALM      29.89R
DELTA          CLOUDY    27  27 100 NW6       30.06R WCI  20
PRICE          CLOUDY    34  20  56 NW10      29.89R WCI  26
RICHFIELD      CLOUDY    30  27  86 N6        30.02R WCI  24
ROOSEVELT      CLOUDY    30  16  55 CALM      29.91R
VERNAL         CLOUDY    27  15  61 CALM      29.90R

$$

UTZ013>016-019>022-027-170700-

SOUTHERN UTAH

CITY           SKY/WX    TMP DP  RH WIND       PRES   REMARKS
BRYCE CANYON   CLOUDY    22  17  81 NW7       29.93R WCI  13
CEDAR CITY     CLOUDY    29  23  78 N15G22    29.98R WCI  18
MILFORD        CLOUDY    29  26  89 N9        30.03R WCI  20
ST GEORGE      PTCLDY    46  25  43 CALM      29.92R
HANKSVILLE     MOCLDY    21   9  58 CALM      29.93R
BLANDING         N/A     31   4  32 E5        29.95R WCI  26

$$

REGIONAL REPORTS     COLORADO/ARIZONA

CITY           SKY/WX    TMP DP  RH WIND       PRES   REMARKS
CRAIG, CO      CLOUDY    15  10  80 CALM      29.88R
GRAND JUNCTION CLOUDY    23   6  48 CALM      29.90R
RIFLE, CO      CLOUDY    24   9  52 CALM      29.90R
MONTROSE, CO   CLOUDY    26   8  46 SE7       29.92R WCI  18
CORTEZ, CO     CLOUDY    26   9  48 NE3       29.88R
COLORADO CITY  MOCLDY    32  14  47 CALM      29.92R
PAGE, AZ       PTCLDY    33  12  41 CALM      29.89R
GRAND CANYON   MOCLDY    24   4  42 E5        29.91R WCI  18
KINGMAN, AZ    PTCLDY    33   7  33 E3        29.86R
FLAGSTAFF, AZ  CLOUDY    28   8  43 CALM      29.90R

$$

REGIONAL REPORTS    NEVADA/IDAHO/WYOMING

CITY           SKY/WX    TMP DP  RH WIND       PRES   REMARKS
LAS VEGAS, NV  MOCLDY    54  26  34 N15G24    29.89R
ELY, NY        MOCLDY    21  14  74 N16       30.05R WCI   7
ELKO, NV       CLOUDY    28  15  58 N9        30.14R WCI  19
POCATELLO, ID  CLOUDY    27  24  89 W12       30.13R WCI  17
BURLEY, ID     CLOUDY    31  23  72 W12G23    30.14R WCI  22
FORT BRIDGER,  CLOUDY    24  23  96 W13       29.96S WCI  12
EVANSTON, WY   CLOUDY    21  20  96 N5        29.96R WCI  15
ROCK SPRINGS,  FLURRIES  27  23  85 W8        29.92R WCI  19

$$




USA.gov is the U.S. government's official web portal to all federal, state and local government web resources and services.